Regional Weather Roundup
Issued by NWS

Home | Current Version | Previous Version | Text Only | Print | Product List | Glossary On
Versions: 1 2 3 4 5 6 7 8 9 10 11 12 13 14 15 16 17 18 19 20 21 22 23 24 25 26 27 28 29 30 31 32 33 34 35 36 37 38 39 40 41 42 43 44 45 46 47 48 49 50
000
ASUS44 KMEG 301000
RWRTN
TENNESSEE HOURLY STATE WEATHER ROUNDUP
NATIONAL WEATHER SERVICE MEMPHIS TN
400 AM CST FRI JAN 30 2015

TNZ002-004-019-021-049-052-054-088>092-301100-
WEST TENNESSEE

CITY           SKY/WX    TMP DP  RH WIND       PRES   REMARKS
MEMPHIS INTL   PTCLDY    38  28  67 N7        30.43R WCI  33
NWS MEMPHIS      N/A     40 N/A N/A MISG        N/A
JACKSON        CLOUDY    39  27  62 N12       30.43R WCI  32
DYERSBURG      CLOUDY    37  19  48 N10       30.46S WCI  30
UNION CITY     CLOUDY    34  27  75 N12       30.43S WCI  25
PARIS          CLOUDY    34  25  69 NW8       30.43R WCI  27
LEXINGTON      CLOUDY    37  27  65 N8        30.39R WCI  31
SAVANNAH       CLOUDY    39  27  60 NW7       30.38S WCI  34
$$

TNZ008-025-027-028-033-062-065-066-301100-
NORTH MIDDLE TENNESSEE

CITY           SKY/WX    TMP DP  RH WIND       PRES   REMARKS
NASHVILLE      CLOUDY    37  27  67 NW9       30.38R WCI  30
CLARKSVILLE    CLOUDY    35  28  75 N10       30.41R WCI  27
COOKEVILLE     MOCLDY    36  30  80 NW7       30.31R WCI  30
CROSSVILLE     CLOUDY    34  25  69 NW14G21   30.26R WCI  25
$$

TNZ061-075-076-078-094-096-097-301100-
SOUTH MIDDLE TENNESSEE

CITY           SKY/WX    TMP DP  RH WIND       PRES   REMARKS
FAYETTEVILLE   CLOUDY    36  28  75 MISG      30.32R
TULLAHOMA      CLOUDY    36  28  75 N13       30.32S WCI  27
WINCHESTER     CLOUDY    36  28  75 N13       30.32S WCI  27
COLUMBIA       CLOUDY    37  32  81 N9        30.35R WCI  31
SHELBYVILLE    CLOUDY    37  30  75 NW12      30.35S WCI  30
$$

TNZ017-018-042-046-047-301100-
NORTHEAST TENNESSEE

CITY           SKY/WX    TMP DP  RH WIND       PRES   REMARKS
TRI CITIES     CLOUDY    35  26  69 NW14G22   30.18R WCI  26
ELIZABETHTON   CLOUDY    34  25  69 W9        30.15R WCI  26
$$

TNZ012-013-036-069-073-074-301100-
CENTRAL EAST TENNESSEE

CITY           SKY/WX    TMP DP  RH WIND       PRES   REMARKS
KNOXVILLE      CLOUDY    37  26  64 N5        30.27R WCI  33
OAK RIDGE      CLOUDY    38  26  62 N5        30.29R WCI  34
GATLINBURG     CLOUDY    36  25  64 NW7       30.26R WCI  30
$$

TNZ083-085-099-301100-
SOUTHEAST TENNESSEE

CITY           SKY/WX    TMP DP  RH WIND       PRES   REMARKS
CHATTANOOGA    CLOUDY    41  27  57 N15       30.29R
$$

SKY/WX REPORTED AS FAIR MEANS FEW OR NO CLOUDS BELOW
12 THOUSAND FEET.




USA.gov is the U.S. government's official web portal to all federal, state and local government web resources and services.